Temp
77 67 61 65 69 72 71 68 65 72 79 71 66 66 69 73 73 69 69 69 68 69 71 72 73 72 71 69 67 66 66 65 66 67 66 68 66 67 69 73 72 72 71 72
70 62 73 79 78 73 70 64 62 70 78 69 65 64 68 71 70 70 70 68 68 67 68 71 70 70 68 67 66 65 65 65 65 64 63 63 65 68 68 67 65 65 67 66
65 70 82 78 73 70 66 63 63 63 70 69 65 60 65 68 70 72 70 70 70 69 67 68 69 68 68 66 65 66 65 65 64 64 63 63 65 64 62 61 64 64 65 65
69 77 77 73 70 69 59 70 69 67 60 50 64 45 60 64 64 68 68 67 67 68 69 68 68 65 67 69 67 65 64 64 65 64 62 60 58 58 60 60 62 63 65 65
68 71 71 69 69 72 64 71 66 65 58 52 57 49 54 62 60 63 65 68 68 69 69 67 68 69 68 70 67 66 66 64 64 64 63 61 58 58 60 62 61 62 62 63
71 78 74 69 76 75 74 66 63 59 54 43 56 54 51 54 59 62 67 68 69 68 66 66 68 69 67 66 66 65 64 63 65 63 62 61 59 58 57 57 57 58 61 62
69 71 74 78 67 71 65 53 40 41 41 42 60 55 50 60 65 66 66 66 66 65 66 64 64 64 64 64 64 67 63 61 62 62 62 61 60 59 57 57 57 56 57 58
56 57 69 75 67 59 59 52 41 34 36 43 57 46 50 64 67 69 69 66 66 62 62 63 65 65 66 62 63 63 61 60 62 61 60 61 60 59 58 57 56 55 55 54
54 58 73 75 74 67 59 49 57 48 47 42 48 53 59 64 64 65 65 66 61 60 62 62 63 64 62 61 61 61 59 58 58 58 56 56 57 55 55 53 53 54 54 57
60 51 69 72 72 69 59 63 46 44 34 33 45 47 47 55 58 63 61 58 59 59 60 62 64 63 62 62 59 59 58 57 57 56 55 57 55 58 57 55 54 54 54 54
62 54 58 66 60 58 56 52 53 50 46 35 34 43 55 54 56 56 58 59 58 58 59 60 60 60 59 58 58 56 56 56 56 55 55 54 54 54 53 52 53 52 52 52
59 54 47 57 66 70 62 55 53 37 42 43 41 41 60 58 62 60 59 60 57 58 59 60 59 59 56 56 56 55 55 55 55 54 54 52 51 51 50 52 51 52 51 52
57 49 38 47 56 62 57 61 58 53 47 42 35 39 66 62 59 58 56 57 59 60 58 58 58 56 57 55 55 55 54 53 53 53 52 51 49 50 51 52 54 51 50 51
62 51 47 40 50 57 55 60 61 52 36 42 44 50 55 55 55 56 56 56 56 56 58 58 56 54 54 55 54 53 52 50 50 51 50 49 50 51 51 52 52 52 53 52
56 46 51 56 61 62 60 61 61 55 53 43 48 50 50 53 54 55 56 58 56 57 59 56 55 52 52 52 51 50 49 49 49 49 48 49 51 51 51 51 51 52 52 52
55 46 51 51 60 61 59 62 61 60 60 55 54 49 54 54 56 57 57 58 56 57 58 57 55 53 52 51 49 49 48 48 50 49 48 50 50 50 50 50 50 50 51 51
53 49 46 41 56 56 45 56 59 58 58 53 44 47 54 53 56 55 54 55 55 56 56 53 52 52 50 47 47 45 47 49 48 48 49 49 49 49 49 50 50 49 50 51
52 49 47 42 48 34 53 63 64 59 58 56 55 54 55 53 55 56 55 53 54 54 53 51 50 49 46 46 45 47 48 48 47 47 48 49 49 48 49 49 48 49 50 50
57 51 42 38 39 50 57 58 54 47 49 56 53 55 56 56 55 53 58 57 54 51 51 50 49 47 46 46 46 47 47 47 47 47 47 48 48 47 48 47 48 49 48 49
58 54 46 42 35 34 50 60 63 57 37 57 55 53 52 52 40 46 55 59 54 52 51 49 49 49 46 46 47 46 46 46 46 47 47 48 48 48 48 48 48 49 49 49
47 47 43 41 38 47 56 61 62 40 40 53 54 52 51 46 49 52 57 53 52 51 51 50 47 45 46 49 48 46 46 45 47 48 48 48 49 49 50 49 49 48 48 48
47 42 41 43 40 38 60 58 46 49 52 54 53 53 51 53 54 53 54 51 51 50 50 49 46 45 45 47 47 45 44 47 48 48 48 48 50 50 50 49 49 49 47 45
46 52 45 47 45 55 59 56 57 57 55 54 54 53 54 53 52 53 51 50 50 49 48 47 45 47 48 48 47 44 46 47 48 47 47 49 50 50 49 47 47 47 46 44
57 59 51 52 55 57 59 60 61 61 58 58 58 57 55 51 53 52 50 49 48 48 46 46 46 46 45 47 47 46 47 48 47 46 47 49 50 47 48 47 47 46 45 44
57 57 55 53 56 58 61 60 60 61 62 61 59 57 55 53 52 51 50 49 47 46 45 47 46 44 44 46 46 47 48 48 46 46 48 49 49 47 47 47 47 46 46 42
57 55 48 45 58 55 57 60 63 61 59 58 57 56 56 54 52 51 50 47 45 44 46 46 46 44 45 46 46 47 48 47 47 46 48 49 48 47 47 47 47 46 42 41
MSLP
1008.44 1009.09 1009.46 1009.42 1009.62 1009.84 1010.06 1010.12 1009.96 1009.49 1009.25 1009.48 1010.21 1011.20 1011.65 1011.91 1012.58 1013.35 1014.15 1014.83 1015.77 1016.51 1017.05 1017.29 1017.56 1017.85 1018.11 1018.52 1018.88 1018.90 1019.08 1019.23 1019.25 1019.22 1019.18 1019.00 1019.14 1018.68 1018.21 1017.73 1017.62 1017.20 1017.24 1017.09
1009.03 1009.54 1009.54 1009.49 1009.58 1009.91 1010.50 1010.95 1011.18 1010.35 1010.52 1010.70 1011.03 1011.43 1012.17 1012.33 1012.91 1013.58 1014.22 1015.11 1015.94 1016.65 1017.07 1017.19 1017.41 1017.50 1017.77 1017.98 1018.27 1018.53 1018.48 1018.41 1018.74 1018.88 1019.00 1019.18 1019.26 1019.05 1018.66 1018.61 1018.46 1018.41 1017.98 1017.76
1009.15 1009.69 1009.31 1009.69 1010.14 1010.50 1011.13 1011.81 1011.97 1012.27 1011.52 1011.27 1011.62 1012.05 1012.17 1012.90 1013.30 1013.81 1014.43 1015.15 1015.75 1016.35 1016.80 1017.04 1017.25 1017.42 1017.44 1017.57 1017.80 1018.01 1017.97 1018.18 1018.28 1018.51 1018.85 1018.74 1018.46 1018.46 1018.90 1019.14 1018.93 1018.56 1018.42 1018.04
1009.54 1009.45 1009.74 1010.15 1010.96 1011.40 1012.01 1012.33 1012.70 1012.93 1013.07 1012.99 1012.85 1013.56 1012.89 1013.43 1014.01 1014.31 1014.91 1015.36 1015.97 1016.33 1016.64 1016.91 1016.99 1017.19 1017.19 1017.13 1017.18 1017.50 1018.13 1018.12 1018.10 1018.05 1018.62 1018.94 1019.01 1019.22 1018.87 1018.75 1018.75 1018.53 1018.25 1017.72
1010.09 1009.89 1010.21 1010.79 1011.41 1011.79 1012.45 1012.71 1013.28 1013.65 1014.04 1014.24 1013.88 1014.43 1013.79 1013.95 1014.67 1014.76 1015.10 1015.50 1015.83 1016.12 1016.41 1016.61 1016.64 1016.76 1016.92 1017.47 1017.81 1018.06 1017.98 1017.94 1017.79 1017.52 1017.96 1018.40 1018.69 1018.77 1018.44 1018.25 1018.18 1018.09 1017.74 1017.55
1010.34 1010.14 1010.51 1011.39 1011.58 1011.99 1012.28 1013.13 1013.79 1013.99 1014.78 1015.63 1014.62 1014.84 1015.44 1015.50 1014.73 1015.17 1015.54 1015.86 1016.24 1016.42 1016.58 1016.51 1016.92 1017.11 1017.59 1017.62 1017.72 1017.78 1017.81 1017.94 1017.70 1017.58 1017.67 1017.84 1018.21 1018.37 1018.15 1018.14 1018.17 1017.88 1017.54 1017.17
1010.96 1010.63 1011.01 1011.39 1012.13 1012.59 1013.35 1014.35 1015.63 1016.22 1016.48 1016.38 1015.11 1014.96 1016.45 1015.89 1015.55 1015.60 1016.01 1016.44 1016.56 1016.57 1017.10 1017.51 1017.33 1017.44 1017.60 1017.70 1017.99 1017.97 1018.16 1018.13 1017.90 1017.89 1017.88 1017.66 1017.52 1017.77 1017.63 1017.70 1017.34 1017.27 1017.37 1017.18
1012.33 1011.97 1011.99 1012.18 1012.80 1013.64 1014.27 1014.93 1016.52 1017.83 1018.23 1017.56 1016.07 1016.61 1016.76 1016.05 1015.76 1015.81 1016.09 1016.57 1016.88 1017.28 1017.43 1017.52 1017.43 1017.49 1017.69 1017.60 1017.53 1017.74 1017.80 1017.95 1017.79 1017.80 1017.82 1017.65 1017.45 1017.18 1016.84 1016.85 1016.96 1016.81 1016.84 1016.88
1013.16 1013.06 1012.74 1012.80 1013.19 1013.90 1014.57 1015.41 1016.32 1017.78 1018.34 1018.64 1017.45 1017.32 1016.47 1016.14 1016.16 1016.18 1016.43 1016.66 1017.41 1017.56 1017.51 1017.74 1017.59 1017.55 1017.54 1017.65 1017.60 1017.70 1018.52 1018.61 1018.46 1018.28 1018.06 1017.91 1017.58 1017.52 1017.58 1017.39 1017.13 1016.92 1016.64 1016.45
1013.87 1013.92 1013.44 1013.55 1013.57 1013.92 1014.49 1015.52 1016.67 1018.11 1019.55 1019.57 1018.34 1017.58 1017.03 1016.66 1016.47 1016.45 1016.77 1017.44 1017.60 1017.69 1017.62 1017.69 1017.41 1017.85 1018.09 1018.34 1018.55 1018.68 1018.78 1018.83 1018.65 1018.45 1018.19 1017.88 1017.61 1017.35 1017.03 1016.90 1016.92 1016.79 1016.50 1016.26
1014.47 1014.98 1014.74 1014.28 1013.91 1013.95 1014.83 1015.60 1016.75 1018.13 1019.45 1020.10 1019.97 1018.45 1017.07 1016.58 1016.42 1016.96 1017.22 1017.54 1017.83 1018.06 1017.97 1018.20 1018.27 1018.39 1018.68 1018.74 1018.83 1019.17 1019.16 1018.96 1018.70 1018.34 1018.05 1017.76 1017.42 1017.16 1017.10 1016.86 1016.62 1016.48 1016.25 1016.08
1015.53 1016.04 1016.16 1015.47 1014.67 1014.17 1014.58 1015.47 1016.72 1018.65 1019.85 1020.25 1020.15 1018.77 1017.09 1016.52 1016.84 1017.38 1017.89 1018.05 1018.14 1018.02 1018.21 1018.24 1018.50 1018.71 1018.89 1018.96 1018.98 1019.06 1018.94 1018.74 1018.44 1018.17 1017.97 1017.73 1017.40 1017.09 1016.82 1016.63 1016.41 1016.10 1015.77 1015.55
1016.74 1017.12 1017.29 1016.37 1015.37 1014.98 1015.03 1015.39 1016.16 1017.46 1018.72 1019.89 1020.38 1018.96 1016.91 1017.35 1017.71 1017.80 1018.04 1018.20 1018.34 1018.36 1018.65 1018.79 1018.63 1018.82 1019.03 1019.27 1019.22 1018.97 1018.77 1018.65 1018.40 1018.30 1018.06 1017.67 1017.29 1016.88 1016.47 1016.07 1015.84 1015.67 1015.42 1015.14
1016.94 1017.83 1018.15 1018.07 1016.79 1016.32 1015.62 1015.43 1015.73 1016.78 1018.32 1018.87 1018.91 1018.09 1017.67 1018.00 1018.03 1018.06 1018.32 1018.47 1018.78 1018.82 1018.85 1018.85 1018.98 1019.22 1019.42 1019.46 1019.22 1018.93 1018.93 1018.92 1018.62 1018.19 1017.89 1017.46 1016.97 1016.50 1016.06 1015.67 1015.38 1015.15 1014.81 1014.47
1017.56 1018.43 1018.39 1018.03 1017.12 1016.25 1015.61 1015.31 1015.43 1016.07 1016.76 1017.87 1017.97 1018.07 1018.38 1018.31 1018.40 1018.41 1018.57 1018.67 1018.90 1019.03 1018.94 1019.22 1019.43 1019.78 1019.76 1019.52 1019.19 1019.38 1019.29 1018.92 1018.49 1018.05 1017.62 1017.03 1016.43 1015.90 1015.47 1015.11 1014.78 1014.42 1014.09 1013.79
1017.90 1018.61 1018.61 1018.44 1017.50 1016.59 1015.73 1015.02 1014.95 1015.28 1015.86 1016.87 1017.41 1018.06 1018.30 1018.28 1018.12 1018.47 1018.86 1019.02 1019.24 1019.25 1019.32 1019.51 1019.79 1019.91 1019.79 1019.66 1019.78 1019.60 1019.23 1018.76 1018.29 1017.78 1017.14 1016.50 1015.94 1015.33 1014.78 1014.33 1014.00 1013.66 1013.34 1013.03
1018.10 1018.82 1019.09 1018.81 1018.12 1017.11 1016.13 1014.98 1014.81 1015.49 1016.36 1016.95 1017.84 1018.45 1018.33 1018.59 1018.86 1019.22 1019.39 1019.49 1019.49 1019.60 1019.67 1019.99 1020.15 1020.07 1020.06 1020.24 1020.06 1019.72 1019.10 1018.47 1017.95 1017.33 1016.62 1015.96 1015.28 1014.70 1014.19 1013.62 1013.24 1012.89 1012.53 1012.28
1017.81 1018.81 1019.37 1019.50 1018.83 1017.82 1015.96 1015.04 1015.18 1015.89 1016.72 1017.29 1017.94 1018.48 1018.79 1019.19 1019.32 1019.36 1019.46 1019.53 1019.81 1019.79 1020.11 1020.26 1020.29 1020.33 1020.38 1020.14 1019.98 1019.58 1018.95 1018.30 1017.67 1016.92 1016.19 1015.41 1014.69 1014.01 1013.40 1012.98 1012.49 1012.06 1011.73 1011.43
1017.34 1018.77 1019.85 1019.82 1019.33 1017.80 1016.24 1015.76 1015.98 1016.76 1017.51 1017.78 1018.24 1018.70 1019.09 1019.25 1019.34 1019.61 1019.44 1019.59 1019.79 1020.22 1020.29 1020.33 1020.28 1020.17 1020.05 1019.96 1019.80 1019.44 1018.79 1018.13 1017.41 1016.58 1015.80 1014.93 1014.14 1013.34 1012.72 1012.19 1011.77 1011.21 1010.89 1010.51
1017.33 1018.41 1019.70 1019.93 1019.75 1018.39 1016.56 1016.26 1016.31 1016.98 1018.08 1018.14 1018.42 1018.84 1019.21 1019.43 1019.99 1020.17 1019.83 1019.78 1020.13 1020.23 1020.36 1020.37 1020.26 1020.16 1020.02 1019.88 1019.62 1019.22 1018.64 1017.94 1017.07 1016.24 1015.40 1014.46 1013.55 1012.72 1012.00 1011.41 1010.91 1010.49 1010.12 1009.79
1017.33 1018.54 1019.23 1019.53 1019.30 1017.88 1016.82 1016.57 1016.77 1017.83 1018.76 1018.32 1018.51 1018.83 1019.25 1019.91 1020.16 1020.04 1019.85 1020.02 1020.20 1020.27 1020.26 1020.20 1020.22 1020.30 1020.14 1019.92 1019.47 1018.99 1018.44 1017.67 1016.78 1015.93 1015.00 1013.98 1013.02 1012.19 1011.50 1010.95 1010.46 1010.03 1009.65 1009.42
1016.38 1017.48 1018.01 1018.35 1018.35 1017.56 1016.69 1016.87 1017.39 1018.20 1017.94 1018.03 1018.27 1018.70 1019.14 1019.52 1019.76 1019.98 1020.04 1020.28 1020.32 1020.34 1020.36 1020.36 1020.45 1020.10 1019.91 1019.66 1019.27 1018.75 1018.18 1017.37 1016.45 1015.62 1014.63 1013.61 1012.50 1011.80 1011.08 1010.48 1009.92 1009.63 1009.40 1009.20
1015.30 1015.51 1016.19 1016.63 1016.57 1016.08 1015.96 1016.26 1016.59 1016.93 1017.37 1017.68 1018.13 1018.49 1018.87 1019.51 1019.83 1019.95 1020.20 1020.53 1020.52 1020.63 1020.70 1020.63 1020.56 1020.28 1019.96 1019.59 1019.21 1018.61 1017.97 1017.13 1016.20 1015.39 1014.40 1013.28 1012.17 1011.61 1011.03 1010.50 1009.87 1009.35 1009.16 1009.06
1014.48 1014.52 1015.16 1015.42 1015.25 1015.34 1015.71 1015.69 1015.86 1016.21 1016.96 1017.39 1017.78 1018.37 1018.91 1019.44 1019.64 1019.94 1020.38 1020.51 1020.73 1020.84 1020.90 1020.68 1020.57 1020.41 1020.03 1019.57 1019.05 1018.46 1017.83 1016.96 1016.12 1015.28 1014.36 1013.26 1012.42 1011.68 1010.96 1010.48 1009.91 1009.40 1008.95 1008.80
1014.50 1014.57 1014.85 1014.99 1014.78 1014.77 1015.15 1015.39 1015.91 1016.41 1016.84 1017.29 1017.88 1018.43 1018.80 1019.13 1019.55 1019.96 1020.40 1020.61 1020.99 1021.13 1020.96 1020.80 1020.82 1020.55 1020.14 1019.54 1018.91 1018.23 1017.63 1016.93 1016.05 1015.25 1014.39 1013.40 1012.65 1012.03 1011.32 1010.61 1010.14 1009.57 1009.18 1009.03
1014.32 1014.18 1014.70 1014.77 1014.67 1014.63 1014.97 1015.13 1015.57 1016.27 1016.88 1017.45 1017.95 1018.38 1018.61 1018.95 1019.54 1019.86 1020.28 1020.80 1021.12 1021.15 1020.97 1020.98 1020.86 1020.60 1020.14 1019.53 1018.87 1018.16 1017.58 1016.99 1016.15 1015.23 1014.32 1013.51 1012.86 1012.38 1011.59 1011.00 1010.31 1009.65 1009.52 1009.04
Wind_Speed
9 2 3 4 4 6 8 8 9 2 8 6 3 10 9 8 9 10 10 10 10 11 8 8 7 7 7 7 7 7 7 6 5 5 6 8 7 5 6 7 7 6 6 4
7 5 6 8 8 4 7 7 9 9 8 5 3 1 8 9 5 9 12 11 11 8 7 7 7 6 6 7 6 7 7 6 4 3 2 2 3 3 4 6 6 8 9 8
2 4 7 7 7 9 7 9 10 8 9 7 6 4 5 3 9 12 9 9 9 9 8 7 7 6 6 7 7 6 6 5 4 5 3 4 2 2 3 4 3 5 6 7
3 6 5 7 9 9 6 9 8 10 9 4 5 6 9 11 8 8 9 8 9 8 6 5 5 5 5 6 8 7 5 4 4 6 3 2 1 2 2 2 5 3 4 6
6 5 7 7 5 3 3 6 6 9 7 4 9 2 8 9 7 9 8 9 9 8 7 4 3 4 0 9 8 6 6 4 4 5 5 4 4 3 3 3 5 7 6 4
3 4 3 3 7 7 2 5 8 5 2 2 12 7 3 3 2 5 7 7 8 6 3 1 5 7 5 5 4 2 2 1 3 3 5 6 7 6 3 4 4 5 4 5
9 3 6 5 5 9 10 7 5 7 4 6 12 7 2 6 11 10 8 7 5 3 7 6 9 7 5 6 6 5 7 6 6 6 6 6 7 8 7 7 5 5 3 2
5 6 4 2 5 2 6 3 6 2 3 6 8 4 2 6 7 6 3 5 6 6 7 7 8 8 6 4 2 3 6 6 7 8 8 7 7 5 5 6 4 3 4 2
4 2 3 7 5 4 6 5 3 2 4 2 2 4 2 6 4 5 6 5 7 6 7 6 7 6 4 5 4 7 9 8 7 6 5 6 6 7 7 7 3 2 3 3
3 4 3 4 3 4 1 1 6 4 0 3 7 4 3 4 6 5 6 7 6 5 6 6 7 9 6 11 8 8 6 5 5 3 3 3 5 6 5 3 5 6 6 5
5 3 7 7 2 6 1 2 1 3 5 4 1 6 4 2 2 4 7 7 7 6 5 5 5 4 8 6 7 7 7 6 6 7 6 6 6 6 6 5 6 6 4 5
1 3 2 6 8 4 3 2 4 6 6 1 5 7 2 1 8 9 6 6 5 6 7 7 7 6 6 7 6 5 6 6 6 6 7 7 6 6 6 8 7 7 7 6
3 3 3 11 5 3 3 3 4 4 4 5 5 8 6 7 5 6 8 8 8 9 9 7 7 5 6 6 5 5 5 6 6 7 9 9 8 10 11 11 9 7 6 7
5 1 3 6 8 5 6 7 7 7 4 6 7 9 6 6 8 8 8 7 8 7 7 7 7 7 7 6 6 6 7 6 8 11 11 12 13 12 11 11 11 11 11 10
5 2 4 8 11 12 9 10 8 7 8 6 8 3 3 5 7 6 6 7 7 7 8 7 7 7 6 6 6 6 6 10 10 11 12 13 14 13 12 11 11 12 11 11
4 3 4 6 11 13 15 13 8 6 7 5 6 3 4 3 7 10 8 9 8 8 7 8 7 6 7 6 6 8 9 11 11 12 13 13 13 13 13 12 12 11 11 11
5 4 2 4 8 12 9 6 2 3 6 3 4 2 6 10 9 7 8 8 8 7 7 7 6 7 7 6 6 9 11 11 12 13 14 13 13 13 13 13 12 12 11 11
3 1 2 4 6 3 8 6 7 6 6 6 5 6 6 5 6 6 6 6 6 6 8 7 6 6 5 6 6 10 12 12 13 14 14 14 14 13 13 12 12 12 10 11
7 4 2 2 3 10 12 4 3 5 3 5 5 7 5 6 6 6 8 7 7 6 4 4 4 2 4 6 6 11 13 13 13 14 14 15 14 13 13 12 12 11 10 10
7 7 6 2 1 4 4 6 7 5 2 5 7 5 5 6 6 5 5 6 6 6 5 5 6 5 6 7 9 11 13 13 13 14 15 15 14 13 11 11 11 9 9 9
4 3 7 5 6 8 3 7 3 3 8 2 2 3 4 2 5 4 6 7 6 5 6 5 6 5 6 9 11 12 13 13 14 14 14 14 14 11 10 10 8 8 7 7
9 7 5 4 5 8 7 4 5 8 3 2 1 4 4 5 6 6 7 7 8 7 7 6 6 5 6 8 10 12 13 14 14 14 14 14 13 10 9 10 7 7 5 7
1 7 6 8 7 6 8 7 7 8 6 2 6 3 4 5 5 6 6 7 6 7 6 6 7 8 9 11 10 12 13 14 12 14 14 13 12 10 9 9 9 7 4 4
4 2 4 4 1 4 7 6 9 7 6 7 4 6 7 5 6 6 6 5 6 6 6 6 7 11 12 11 11 11 12 13 12 13 13 13 8 12 10 7 6 6 5 5
5 4 2 3 3 2 5 4 8 8 7 5 8 7 5 5 5 5 4 6 6 5 6 5 9 10 11 12 12 12 11 12 12 12 11 11 6 9 9 8 6 6 6 6
2 5 2 6 4 6 3 8 9 7 6 8 8 5 4 4 5 5 5 5 4 5 5 6 10 9 11 12 12 12 11 11 12 11 10 9 5 7 7 7 7 8 4 10
Wind_Direction
275 235 295 34 48 14 346 348 340 315 210 144 170 159 171 148 140 128 117 111 107 108 119 108 103 108 106 110 103 97 81 36 45 23 13 7 2 345 345 11 335 23 37 35
313 58 359 359 337 37 19 19 358 334 28 39 75 314 140 163 161 139 124 112 117 119 118 122 117 114 134 124 118 104 115 112 111 92 116 107 349 352 328 343 350 352 357 357
17 51 22 12 15 36 33 33 2 340 332 357 3 317 260 139 109 96 95 117 118 125 133 133 137 141 151 163 164 165 166 141 125 116 47 3 356 352 3 327 285 317 317 279
35 90 51 332 56 40 5 15 359 332 359 306 50 284 311 146 116 114 129 139 139 151 131 134 148 175 184 203 177 179 142 156 146 119 105 93 191 271 267 289 296 303 281 313
269 51 48 11 45 45 249 343 287 280 283 332 293 17 285 115 140 169 168 148 145 126 117 109 278 213 87 24 48 112 172 166 158 163 174 182 210 223 257 305 321 320 314 289
235 117 91 66 353 310 294 311 322 282 162 342 266 193 329 23 169 100 46 73 92 102 86 210 21 59 91 70 58 41 345 185 253 228 225 220 224 232 234 248 273 277 279 285
328 232 85 84 12 359 22 44 347 352 21 208 340 37 26 64 58 77 73 73 57 6 11 28 39 33 1 38 35 31 22 350 339 314 290 248 223 230 229 239 227 230 275 328
17 347 25 110 82 349 286 130 142 273 356 284 319 52 207 106 101 112 98 115 70 74 47 27 7 342 8 71 76 333 295 283 302 312 311 331 311 260 243 235 254 209 176 206
12 39 128 81 47 94 308 50 189 75 294 10 201 89 56 158 118 61 41 42 64 65 40 12 333 305 205 280 287 359 17 18 18 45 38 16 26 20 0 339 318 268 257 232
330 336 344 150 207 139 205 264 32 352 246 298 324 3 160 42 9 8 10 63 44 26 5 335 325 4 13 45 55 49 28 7 338 347 347 320 298 296 269 252 268 262 260 249
29 80 298 345 239 194 162 291 216 138 138 164 257 280 174 133 254 63 49 45 40 19 354 0 35 42 57 58 45 28 15 359 345 334 316 314 320 347 330 305 288 282 282 285
75 117 304 269 298 78 88 315 117 116 291 2 150 263 10 302 56 70 40 38 11 6 27 17 24 23 51 41 40 23 341 336 325 318 316 318 335 326 316 309 293 280 270 259
333 318 357 330 26 41 228 250 212 183 119 202 157 260 267 46 65 43 53 22 7 9 24 13 352 40 38 29 11 341 348 346 344 348 336 319 312 309 308 300 296 295 284 278
80 347 178 205 259 303 285 252 231 186 127 220 220 261 352 12 22 21 23 10 20 20 358 331 357 28 27 1 342 345 352 7 334 319 317 313 309 306 299 293 289 289 284 280
112 217 279 286 290 296 297 301 288 274 239 169 243 255 30 34 31 17 9 356 29 0 334 10 17 25 353 337 355 13 342 329 323 316 309 306 304 300 296 290 287 283 281 277
175 243 314 298 292 287 287 279 271 309 297 45 29 43 56 42 33 15 356 7 4 336 12 21 33 355 336 353 10 339 332 327 321 311 305 304 300 298 294 288 284 280 275 268
162 170 0 270 310 318 324 288 306 96 65 91 57 311 24 14 7 344 7 8 340 7 18 32 3 336 350 14 346 338 326 320 317 311 307 303 298 294 292 288 283 277 275 270
172 63 190 262 318 266 243 61 78 92 76 35 16 40 27 14 339 342 33 356 11 23 35 9 345 6 13 335 341 336 328 322 318 311 308 305 300 292 288 287 282 279 274 270
157 126 292 174 226 262 301 117 145 131 292 78 70 24 1 336 347 333 7 35 10 57 8 351 355 1 353 336 333 333 328 322 317 314 312 309 304 296 289 283 283 277 273 271
147 145 135 346 298 249 224 140 125 131 346 64 52 355 341 5 16 279 357 25 28 29 15 6 356 342 357 343 332 327 325 320 317 317 312 308 303 296 290 285 282 279 269 268
141 183 190 215 226 266 73 96 105 120 234 35 324 339 17 14 226 274 25 3 45 26 7 7 5 356 346 336 332 320 322 318 314 313 310 307 306 309 301 293 290 287 284 282
168 168 194 204 222 278 147 136 160 203 188 230 2 55 16 325 2 10 354 36 16 353 356 12 353 336 336 333 331 320 320 316 313 314 311 311 306 311 308 306 297 297 292 296
315 175 193 154 210 181 190 169 170 167 185 128 91 36 354 38 20 357 353 26 353 8 9 3 338 341 338 337 331 320 319 319 319 319 316 314 319 320 327 326 325 312 287 298
314 157 167 81 159 148 195 203 177 175 118 101 77 58 66 43 4 352 42 357 24 7 9 345 358 342 335 334 326 317 322 319 321 319 320 323 348 337 336 334 327 325 320 303
214 17 307 251 177 222 18 113 108 105 96 82 75 78 55 24 355 37 14 28 27 11 346 11 349 336 331 328 325 326 328 328 321 320 320 323 341 340 338 342 336 338 346 338
238 213 157 225 278 171 162 139 128 113 100 92 80 38 337 51 49 63 22 68 42 352 356 3 341 334 330 326 328 328 330 329 322 321 324 328 337 341 337 340 338 343 13 11